Location: Kalberh�ni
(46.4610°N, 7.2453°E)
Time: 09:01:36
(UTC+00:00)

Cosmos 1455 - Pass Details

Date: 29 October 2021
Orbit: 496 x 520 km, 82.5° (Epoch: 27 November)

Event Time Altitude Azimuth Distance (km) Brightness Sun altitude
Rises 17:54:18 0° 183° (S) 2,613 5.9 -16.7°
Reaches altitude 10° 17:56:26 10° 182° (S) 1,728 4.9 -17.0°
Maximum altitude 18:00:12 75° 98° (E) 531 2.0 -17.7°
Drops below altitude 10° 18:03:59 10° 12° (NNE) 1,728 4.7 -18.3°
Sets 18:06:07 0° 11° (N) 2,614 5.7 -18.7°
